Regional Weather Roundup
Issued by NWS

Home | Current Version | Previous Version | Graphics & Text | Print | Product List | Glossary On
Versions: 1 2 3 4 5 6 7 8 9 10 11 12 13 14 15 16 17 18 19 20 21 22 23 24 25 26 27 28 29 30 31 32 33 34 35 36 37 38 39 40 41 42 43 44 45 46 47 48 49 50
148
ASUS45 KTFX 130210
RWRMT
MONTANA REGIONAL WEATHER ROUNDUP
NATIONAL WEATHER SERVICE GREAT FALLS MT
700 PM MST FRI FEB 12 2016

NOTE: "FAIR" INDICATES FEW OR NO CLOUDS BELOW 12000 FEET WITH NO
SIGNIFICANT WEATHER AND/OR OBSTRUCTIONS TO VISIBILITY.

MTZ001>007-043-130300-
WEST OF THE DIVIDE

CITY           SKY/WX    TMP DP  RH WIND       PRES   REMARKS
KALISPELL      FOG       35  34  96 CALM      30.11S VSB 1/2
MISSOULA       CLOUDY    39  36  89 CALM      30.11F
BUTTE          CLOUDY    36  31  82 CALM      30.13F
MULLAN PASS    CLOUDY    36  31  82 W6        30.10F WCI  31
ANACONDA         N/A     37  34  87 SW5       30.12S
DEER LODGE       N/A     39  36  87 SW3       30.12F
HAMILTON         N/A     45  41  87 CALM      30.09F
PLAINS           N/A     41  36  82 CALM      30.10F
$$

MTZ008-052>055-130300-
SOUTHWEST MONTANA

CITY           SKY/WX    TMP DP  RH WIND       PRES   REMARKS
BOZEMAN        MOCLDY    38  32  79 S5        30.12S
DILLON         CLOUDY    40  26  57 SW14      30.14S
ENNIS          CLEAR     43  19  39 S23G31    30.20F
TWIN BRIDGES     N/A     39  28  65 E5        30.11S
$$

MTZ009-010-012-014-046-048-049-054-130300-
EAST SLOPES AND CENTRAL MONTANA

CITY           SKY/WX    TMP DP  RH WIND       PRES   REMARKS
CUT BANK       CLEAR     45  35  68 W18       29.99R
GREAT FALLS    CLEAR     49  33  54 SW15      30.00S
MALMSTROM AFB  MOCLDY    51  34  52 SW17      30.01S
HELENA         PTCLDY    44  36  73 S5        30.08F
CHOTEAU          N/A     50  32  50 SW8       30.01R
CONRAD           N/A     33  33 100 NE1       30.03S
$$

MTZ011-013-016-021-045-047-050-051-130300-
NORTH CENTRAL MONTANA

CITY           SKY/WX    TMP DP  RH WIND       PRES   REMARKS
HAVRE          CLOUDY    27  25  92 NE9       30.05S WCI  18
LEWISTOWN      CLOUDY    36  32  85 SE7       30.04F WCI  30
N BAR RANCH      N/A     36  30  80 N5        30.08F
CHINOOK          N/A     25  21  86 E21       30.07F WCI  10
$$

MTZ017>020-022>027-061-062-130300-
NORTHEAST MONTANA

CITY           SKY/WX    TMP DP  RH WIND       PRES   REMARKS
GLASGOW        LGT SNOW  17  12  80 E21       30.22F WCI   0
JORDAN           N/A     28  25  88 E13       30.18F WCI  17
SIDNEY         MOCLDY    16   5  62 SE10      30.38F WCI   3
WOLF POINT     SNOW      19  13  77 E14       30.31F WCI   6
PLENTYWOOD       N/A     10   0  61 E16G23    30.35F WCI  -7
POPLAR           N/A     16   9  73 E17       30.33F WCI   0
$$

MTZ028>42-056>058-130300-
SOUTHCENTRAL AND SOUTHEAST MONTANA

CITY           SKY/WX    TMP DP  RH WIND       PRES   REMARKS
BAKER          CLOUDY    20  13  74 SE23G29   30.27F WCI   3
BILLINGS       CLOUDY    38  30  73 N3        30.09F
LIVINGSTON     CLOUDY    53  22  29 SW23G31   30.09R
MILES CITY     CLOUDY    34  26  72 SE15      30.19F WCI  24
FORSYTH          N/A     34  28  80 E9        30.15F WCI  26
LAUREL           N/A     39  29  68 N6        30.06
ROUNDUP          N/A     38  28  67 CALM      30.01F
$$

REGIONAL REPORTS...DAKOTAS

CITY           SKY/WX    TMP DP  RH WIND       PRES   REMARKS
WILLISTON      CLOUDY    13   2  61 SE12      30.42F WCI  -1
MINOT          CLOUDY     2  -8  63 E6        30.53S WCI  -9
DICKINSON      CLOUDY    10   2  69 SE15      30.37F WCI  -7
BEACH          MOCLDY    14   9  79 SE16      30.35R WCI  -2
CROSBY           N/A      9   0  66 E8        30.46F WCI  -4
TIOGA            N/A      7   0  72 SE12      30.47F WCI  -9
WATFORD CITY   CLOUDY    10   1  67 SE13      30.42F WCI  -5
BISMARCK       CLOUDY     6  -2  69 SE7       30.57S WCI  -6
GRAND FORKS    CLOUDY    -4 -12  68 NW6       30.68R WCI -16
FARGO          CLOUDY    -3 -12  65 NW9       30.68S WCI -19
BUFFALO SD       N/A     21  16  81 SE22      30.23F WCI   5
RAPID CITY     CLOUDY    22  20  92 SE12      30.34S WCI  10
$$

REGIONAL REPORTS...WYOMING/IDAHO/WASHINGTON

CITY           SKY/WX    TMP DP  RH WIND       PRES   REMARKS
GILLETTE       CLOUDY    35  29  78 S21       30.14F WCI  24
SHERIDAN       CLOUDY    35  29  78 NW5       30.12F
BUFFALO WY       N/A    N/A N/A N/A MISG      30.14F
CODY           CLEAR     45  25  45 S5        30.11F
YELLOWSTONE LA   N/A     30  19  63 CALM      30.28F
IDAHO FALLS    CLOUDY    24  20  84 CALM      30.27S
SALMON         CLOUDY    32  28  86 CALM      30.22S
BOISE          CLOUDY    44  35  70 CALM      30.21F
SPOKANE        LGT RAIN  44  41  89 NW7       30.10S
$$

REGIONAL REPORTS...ALBERTA

CITY           SKY/WX    TMP DP  RH WIND       PRES   REMARKS
EDMONTON       CLOUDY    18  12  79 SE15      29.97F WCI   3
CALGARY        FOG       28  28 100 S12       29.88F VSB 1/4 WCI  18
LETHBRIDGE     PTCLDY    41  32  70 W2        29.93R
MEDICINE HAT   CLEAR     28  27  93 E6        29.98F WCI  22
WATERTON GATE    N/A     43  36  75 SW26G40     N/A
CARDSTON         N/A     46  32  57 SW5         N/A
MILK RIVER       N/A     32  30  93 S8          N/A  WCI  25
$$

REGIONAL REPORTS...SASKATCHEWAN

CITY           SKY/WX    TMP DP  RH WIND       PRES   REMARKS
SWIFT CURRENT  LGT SNOW  14  10  85 SE20G26   30.13F WCI  -3
REGINA         MOCLDY     7  -2  66 SE16      30.38F WCI -11
SASKATOON      MOCLDY     3  -4  72 SE20      30.33F WCI -18
CYPRESS HILLS    N/A     16  14  93 S3          N/A
VAL MARIE        N/A     16  14  93 SE13        N/A  WCI   2
ROCKGLEN         N/A      9   7  92 SE16G23     N/A  WCI  -9
ASSINIBOIA       N/A     14  10  85 SE14        N/A  WCI  -1
$$




USA.gov is the U.S. government's official web portal to all federal, state and local government web resources and services.